Simultaneous Nadir Overpasses (SNOs) Predictions

Prediction of SNOs between METOP-B and TERRA Satellite Orbit:

Table of predicted SNOs for the next 14.0 days since TLE Epoch: 5/4/2019
Index Date (METOP-B) Time (METOP-B) Lat,Lon (METOP-B) SZA (METOP-B ) Date (TERRA) Time (TERRA) Lat,Lon (TERRA) SZA (TERRA ) Distance(km) Time Diff (sec)
1 05/05/2019 11:12:22 81.31, 59.25 68.05 05/05/2019 11:13:00 81.31, 59.20 68.07 1.05 38
2 05/05/2019 12:03:03 -81.30,-133.48 111.97 05/05/2019 12:02:27 -81.30,-133.35 111.98 2.25 36
3 05/08/2019 06:46:46 81.30, 125.36 67.24 05/08/2019 06:47:16 81.29, 125.30 67.24 1.45 30
4 05/08/2019 07:37:26 -81.31, -66.93 112.73 05/08/2019 07:36:42 -81.30, -66.84 112.74 1.52 44
5 05/11/2019 02:21:07 81.31,-167.76 66.56 05/11/2019 02:21:29 81.31,-167.92 66.56 2.67 22
6 05/11/2019 03:11:48 -81.31, -0.39 113.45 05/11/2019 03:10:56 -81.31, -0.39 113.48 0.29 52
7 05/13/2019 21:55:31 81.30,-101.68 65.82 05/13/2019 21:55:44 81.31,-101.57 65.84 1.84 13
8 05/13/2019 22:46:11 -81.31, 66.12 114.14 05/13/2019 22:45:11 -81.30, 65.98 114.19 2.44 60
9 05/16/2019 17:29:54 81.30, -35.22 65.16 05/16/2019 17:29:59 81.30, -35.29 65.15 1.39 5




NCC Satellite Simultaneous Nadir Overpasses (SNOs) Prediction Service
